"2010-12-09 00:00:00",406381,2.244,166.3,8.16,0.856,11.61,104.4929,10.77,11.74,12.93,0,110.1,13.36,11.56,128.3
"2010-12-09 00:00:30",406382,2.516,171.2,8.49,1.215,11.1,104.4985,10.79,11.68,12.94,0,110.1,13.36,11.58,133.2
"2010-12-09 00:01:00",406383,2.533,191.2,12.81,1.288,12.41,104.5039,10.8,11.73,13.14,0,110.1,13.36,11.59,153.2
"2010-12-09 00:01:30",406384,1.236,190.4,7.574,0.154,10.06,104.5039,10.8,11.64,13.21,0,110.1,13.4,11.59,152.4
"2010-12-09 00:02:00",406385,2.074,213.3,4.93,0.676,10.18,104.5093,10.82,11.65,13.43,0,110.1,13.4,11.61,175.3
"2010-12-09 00:02:30",406386,3.794,227,10.25,1.393,12.6,104.5313,10.87,11.74,13.98,0,110.1,13.36,11.66,189.0
"2010-12-09 00:03:00",406387,3.871,224.7,7.878,1.451,13.23,104.5378,10.89,11.83,14.24,0,110.1,13.36,11.68,186.7
"2010-12-09 00:03:30",406388,2.38,229.7,10.11,0.365,11.38,104.5488,10.92,11.73,14.18,0,110.1,13.4,11.71,191.7
"2010-12-09 00:04:00",406389,4.509,202.4,22,1.48,14.59,104.5711,10.97,11.96,14.18,0,110.1,13.36,11.77,164.4
"2010-12-09 00:04:30",406390,5.305,184.2,14.17,1.36,15.34,104.5716,10.98,11.98,13.88,0,110.1,13.37,11.77,146.2
"2010-12-09 00:05:00",406391,3.724,198.3,10.82,1.206,12.53,104.5716,10.98,11.87,14.07,0,110.1,13.37,11.77,160.3
"2010-12-09 00:05:30",406392,3.056,205.6,8.96,1.416,11.56,104.5888,11.02,11.86,14.1,0,110.1,13.37,11.81,167.6
"2010-12-09 00:06:00",406393,2.761,194.8,15.5,1.001,11.99,104.6055,11.06,11.96,14.17,0,110.1,13.37,11.85,156.8
"2010-12-09 00:06:30",406394,1.07,231.1,19.07,0.218,10.45,104.6108,11.08,11.86,14.02,0,110.1,13.41,11.87,193.1
"2010-12-09 00:07:00",406395,1.223,190.1,11.29,0.368,10.65,104.6261,11.12,11.88,13.99,0,110.1,13.37,11.91,152.1
"2010-12-09 00:07:30",406396,3.642,197.1,10.79,1.575,12.91,104.6283,11.12,12.06,13.96,0,110.1,13.37,11.91,159.1
"2010-12-09 00:08:00",406397,2.734,207.4,12.42,0.28,11.23,104.6394,11.15,11.94,13.71,0,110.1,13.41,11.94,169.4
"2010-12-09 00:08:30",406398,1.859,209.5,12.64,0.626,11.34,104.6394,11.15,11.96,13.57,0,110.1,13.41,11.94,171.5
"2010-12-09 00:09:00",406399,2.442,200.3,18.41,1.331,13.49,104.6396,11.15,12.08,13.56,0,110.1,13.38,11.94,162.3
"2010-12-09 00:09:30",406400,2.977,212.4,13.84,1.546,12.6,104.6394,11.15,12.09,13.64,0,110.1,13.38,11.94,174.4
"2010-12-09 00:10:00",406401,3.336,226.3,10.4,1.458,13.4,104.6396,11.15,12.15,13.84,0,110.1,13.37,11.94,188.3
"2010-12-09 00:10:30",406402,2.882,225.9,13.39,1.412,12.67,104.6399,11.15,12.01,13.68,0,110.1,13.37,11.94,187.9
"2010-12-09 00:11:00",406403,1.564,162.3,24.75,1.285,12.64,104.6411,11.15,12.15,13.84,0,110.1,13.38,11.94,124.3
"2010-12-09 00:11:30",406404,1.966,157.8,4.589,0.367,10.38,104.6355,11.14,11.98,13.36,0,110.1,13.38,11.93,119.8
"2010-12-09 00:12:00",406405,2.106,166.4,5.36,0.23,10.45,104.609,11.07,11.97,13.13,0,110.1,13.41,11.86,128.4
"2010-12-09 00:12:30",406406,2.979,159.9,8.21,1.442,12.79,104.589,11.02,12.07,13.38,0,110.1,13.38,11.81,121.9
"2010-12-09 00:13:00",406407,1.235,155.7,12.83,0.242,11.07,104.582,11,11.96,13.38,0,110.1,13.41,11.79,117.7
"2010-12-09 00:13:30",406408,1.139,162.3,15.11,0.366,11.37,104.6149,11.09,11.92,13.83,0,110.1,13.42,11.88,124.3
"2010-12-09 00:14:00",406409,1.223,173.2,16.88,1.15,12.77,104.651,11.18,12.11,13.98,0,110.1,13.38,11.97,135.2
"2010-12-09 00:14:30",406410,2.238,192.1,18.24,0.745,11.86,104.6562,11.19,12.01,13.59,0,110.1,13.38,11.98,154.1
"2010-12-09 00:15:00",406411,2.09,164,26.04,0.248,11.21,104.6568,11.19,11.99,13.58,0,110.1,13.41,11.99,126.0
"2010-12-09 00:15:30",406412,2.37,251.2,19.48,1.071,13.14,104.6591,11.2,12.19,13.89,0,110.1,13.37,11.99,213.2
"2010-12-09 00:16:00",406413,2.488,215.2,23.01,0.921,11.77,104.6637,11.21,12.04,13.74,0,110.1,13.37,12.00,177.2
"2010-12-09 00:16:30",406414,3.699,193.9,15.57,1.633,13.43,104.6684,11.22,12.18,13.84,0,110.1,13.37,12.02,155.9
"2010-12-09 00:17:00",406415,3.808,169.6,5.94,0.497,11.17,104.6665,11.22,12.09,13.77,0,110.1,13.4,12.01,131.6
"2010-12-09 00:17:30",406416,4.468,162.9,9.88,1.035,12.92,104.6689,11.22,12.18,13.77,0,110.1,13.37,12.02,124.9
"2010-12-09 00:18:00",406417,4.043,170.1,17.07,1.082,12.3,104.6698,11.23,12.19,13.75,0,110.1,13.37,12.02,132.1
"2010-12-09 00:18:30",406418,3.695,198.1,11.28,0.848,12.35,104.6715,11.23,12.18,13.99,0,110.1,13.37,12.02,160.1
"2010-12-09 00:19:00",406419,2.294,226,10.01,1.407,12.3,104.6769,11.25,12.09,14.06,0,110.1,13.37,12.04,188.0
"2010-12-09 00:19:30",406420,1.145,203.2,13.94,0.347,11.09,104.6944,11.29,12.05,13.97,0,110.1,13.41,12.08,165.2
"2010-12-09 00:20:00",406421,1.558,174.1,12.85,0.307,10.87,104.6996,11.3,12.07,13.84,0,110.1,13.41,12.10,136.1
"2010-12-09 00:20:30",406422,3.523,183,11.27,1.33,13.5,104.6761,11.24,12.24,13.82,0,110.1,13.37,12.03,145.0
"2010-12-09 00:21:00",406423,2.098,170.3,5.365,0.343,11.53,104.6733,11.24,12.11,13.8,0,110.1,13.38,12.03,132.3
"2010-12-09 00:21:30",406424,2.273,190,8.48,1,11.82,104.6728,11.23,12.06,13.79,0,110.1,13.38,12.03,152.0
"2010-12-09 00:22:00",406425,3.65,198,6.787,1.291,13.91,104.6615,11.21,12.24,14.01,0,110.1,13.38,12.00,160.0
"2010-12-09 00:22:30",406426,2.678,185.7,11.69,1.474,12.13,104.6547,11.19,12.08,13.91,0,110.1,13.38,11.98,147.7
"2010-12-09 00:23:00",406427,3.295,181,7.744,1.372,12.93,104.6621,11.21,12.12,14.04,0,110.1,13.38,12.00,143.0
"2010-12-09 00:23:30",406428,3.198,197.2,6.109,1.501,12.84,104.6728,11.24,12.17,14.16,0,110.1,13.38,12.03,159.2
"2010-12-09 00:24:00",406429,2.521,190.3,9.87,0.529,11.47,104.6745,11.24,12.15,14.06,0,110.1,13.38,12.03,152.3
"2010-12-09 00:24:30",406430,1.782,189.2,9.23,0.157,10.69,104.6748,11.24,12.04,13.92,0,110.1,13.42,12.03,151.2
"2010-12-09 00:25:00",406431,1.46,192.6,7.905,0.225,10.73,104.6748,11.24,12.04,14.06,0,110.1,13.42,12.03,154.6
"2010-12-09 00:25:30",406432,1.886,205.1,10.14,0.23,10.95,104.6748,11.24,12.05,14.13,0,110.1,13.42,12.03,167.1
"2010-12-09 00:26:00",406433,2.242,209.4,9.05,1.062,12.46,104.6748,11.24,12.23,14.4,0,110.1,13.38,12.03,171.4
"2010-12-09 00:26:30",406434,2.166,214,8.91,1.602,12.84,104.6748,11.24,12.08,14.29,0,110.1,13.38,12.03,176.0
"2010-12-09 00:27:00",406435,2.503,237.7,12.87,1.149,13.69,104.6748,11.24,12.19,14.48,0,110.1,13.38,12.03,199.7
"2010-12-09 00:27:30",406436,2.533,238.2,5.919,1.118,12.17,104.6748,11.24,12.26,14.64,0,110.1,13.38,12.03,200.2
"2010-12-09 00:28:00",406437,3.154,253.5,7.955,1.551,13.11,104.6748,11.24,12.12,14.57,0,110.1,13.38,12.03,215.5
"2010-12-09 00:28:30",406438,2.451,252.7,8.08,1.304,12.17,104.6748,11.24,12.15,14.62,0,110.1,13.38,12.03,214.7
"2010-12-09 00:29:00",406439,2.976,243.1,15.22,1.428,12.68,104.6748,11.24,12.2,14.67,0,110.1,13.38,12.03,205.1
"2010-12-09 00:29:30",406440,1.28,191.5,14.95,0.267,10.45,104.6731,11.24,12.05,14.58,0,110.1,13.42,12.03,153.5
"2010-12-09 00:30:00",406441,1.833,229.3,11.2,0.601,10.4,104.6629,11.21,12.04,14.64,0,110.1,13.42,12.00,191.3
"2010-12-09 00:30:30",406442,3.193,231.8,5.548,0.431,10.62,104.6579,11.2,12.04,14.69,0,110.1,13.42,11.99,193.8
"2010-12-09 00:31:00",406443,3.233,242,3.768,0.393,11.03,104.6469,11.17,12.02,14.68,0,110.1,13.42,11.96,204.0
"2010-12-09 00:31:30",406444,4.014,251.2,7.111,1.298,14.02,104.6409,11.15,12.2,14.96,0,110.1,13.38,11.94,213.2
"2010-12-09 00:32:00",406445,4.757,245.9,9.79,1.185,14.35,104.6409,11.15,12.12,14.93,0,110.1,13.38,11.94,207.9
"2010-12-09 00:32:30",406446,3.629,222.2,7.71,1.251,12.65,104.6409,11.15,12.12,14.92,0,110.1,13.38,11.94,184.2
"2010-12-09 00:33:00",406447,4.521,225.7,7.013,1.305,13.06,104.6409,11.15,12.16,14.89,0,110.1,13.38,11.94,187.7
"2010-12-09 00:33:30",406448,3.681,210.5,11.93,1.159,12.38,104.6324,11.13,12.04,14.75,0,110.1,13.37,11.92,172.5
"2010-12-09 00:34:00",406449,3.188,222.3,4.97,0.24,10.64,104.6228,11.11,12.02,14.84,0,110.1,13.41,11.90,184.3
"2010-12-09 00:34:30",406450,3.161,222.9,6.299,0.253,10.65,104.6212,11.1,11.96,14.87,0,110.1,13.41,11.89,184.9
"2010-12-09 00:35:00",406451,3.182,209.5,6.604,0.546,10.98,104.6341,11.14,11.96,14.74,0,110.1,13.41,11.93,171.5
"2010-12-09 00:35:30",406452,2.946,221,13.48,1.609,12.4,104.6409,11.15,12.04,14.82,0,110.1,13.38,11.94,183.0
"2010-12-09 00:36:00",406453,4.568,230.6,5.589,1.283,12.94,104.6409,11.15,12.05,14.75,0,110.1,13.38,11.94,192.6
"2010-12-09 00:36:30",406454,5.251,224.6,16.05,1.425,15.62,104.6409,11.15,12.22,14.93,0,110.1,13.38,11.94,186.6
"2010-12-09 00:37:00",406455,4.423,200,12.27,1.408,14.91,104.6409,11.15,12.24,14.72,0,110.1,13.38,11.94,162.0
"2010-12-09 00:37:30",406456,4.403,214.9,8.09,1.178,14.02,104.6409,11.15,12.17,14.76,0,110.1,13.38,11.94,176.9
"2010-12-09 00:38:00",406457,4.556,204.1,9,1.377,12.6,104.6409,11.15,12.13,14.61,0,110.1,13.38,11.94,166.1
"2010-12-09 00:38:30",406458,3.56,200.9,5.095,0.46,10.45,104.6409,11.15,12.01,14.46,0,110.1,13.42,11.94,162.9
"2010-12-09 00:39:00",406459,3.197,222.9,5.763,0.492,10.53,104.6443,11.16,12.01,14.61,0,110.1,13.42,11.95,184.9
"2010-12-09 00:39:30",406460,2.662,229.7,3.703,0.147,10.96,104.6556,11.19,12.03,14.61,0,110.1,13.42,11.98,191.7
"2010-12-09 00:40:00",406461,3.414,220.6,3.799,0.211,11.4,104.6601,11.2,12.02,14.53,0,110.1,13.42,11.99,182.6
"2010-12-09 00:40:30",406462,4.618,222.3,11.01,1.554,14.68,104.668,11.22,12.22,14.61,0,110.1,13.38,12.01,184.3
"2010-12-09 00:41:00",406463,5.488,228.5,10.82,1.202,15.74,104.6745,11.24,12.26,14.47,0,110.2,13.38,12.03,190.5
"2010-12-09 00:41:30",406464,5.636,217,7.6,1.037,15.97,104.6748,11.24,12.33,14.35,0,110.1,13.38,12.03,179.0
"2010-12-09 00:42:00",406465,4.625,226.1,10.06,1.323,14.16,104.6748,11.24,12.34,14.51,0,110,13.38,12.03,188.1
"2010-12-09 00:42:30",406466,2.988,223.6,5.9,1.447,11.57,104.6748,11.24,12.08,14.3,0,110.1,13.38,12.03,185.6
"2010-12-09 00:43:00",406467,2.406,213.2,4.987,0.151,10.29,104.6748,11.24,12.08,14.21,0,110.1,13.42,12.03,175.2
"2010-12-09 00:43:30",406468,2.436,221.5,5.6,0.123,10.48,104.6748,11.24,12.09,14.11,0,110.1,13.42,12.03,183.5
"2010-12-09 00:44:00",406469,2.265,244.1,10.05,0.355,10.92,104.6748,11.24,12.09,14.22,0,110.1,13.42,12.03,206.1
"2010-12-09 00:44:30",406470,2.369,235.6,7.497,0.224,11.29,104.6748,11.24,12.11,14.29,0,110.1,13.42,12.03,197.6
"2010-12-09 00:45:00",406471,2.469,251.3,10.79,0.553,11.67,104.6748,11.24,12.11,14.45,0,110.1,13.42,12.03,213.3
"2010-12-09 00:45:30",406472,4.33,267,5.75,1.374,15.2,104.6748,11.24,12.37,15.08,0,110.1,13.39,12.03,229.0
"2010-12-09 00:46:00",406473,3.713,251.4,10.58,1.32,15.16,104.6748,11.24,12.37,15.03,0,110.1,13.39,12.03,213.4
"2010-12-09 00:46:30",406474,4.591,232,9.91,1.232,14.65,104.6748,11.24,12.38,14.9,0,110.1,13.39,12.03,194.0
"2010-12-09 00:47:00",406475,4.465,223.9,9.4,1.32,13.81,104.6748,11.24,12.34,14.83,0,110.1,13.39,12.03,185.9
"2010-12-09 00:47:30",406476,2.807,227.9,6.809,0.408,10.41,104.6748,11.24,12.1,14.76,0,110.1,13.42,12.03,189.9
"2010-12-09 00:48:00",406477,2.81,234.5,4.039,0.152,10.43,104.6748,11.24,12.12,14.89,0,110.1,13.42,12.03,196.5
"2010-12-09 00:48:30",406478,2.872,231.1,7.472,0.298,10.69,104.6756,11.24,12.13,14.84,0,110.1,13.42,12.03,193.1
"2010-12-09 00:49:00",406479,2.704,204.9,7.191,0.252,11.05,104.6768,11.25,12.12,14.51,0,110.1,13.42,12.04,166.9
"2010-12-09 00:49:30",406480,2.445,227.2,6.802,0.224,11.57,104.6844,11.26,12.14,14.81,0,110.1,13.42,12.06,189.2
"2010-12-09 00:50:00",406481,3.212,220.1,5.303,1.013,12.52,104.701,11.31,12.17,14.8,0,110.1,13.39,12.10,182.1
"2010-12-09 00:50:30",406482,3.88,230.2,10.02,1.463,15.75,104.7081,11.33,12.4,15.06,0,110.1,13.39,12.12,192.2
"2010-12-09 00:51:00",406483,4.379,239.6,7.023,0.979,15.82,104.7087,11.33,12.39,15.17,0,110.1,13.38,12.12,201.6
"2010-12-09 00:51:30",406484,3.814,234.1,7.982,1.372,14.26,104.7087,11.33,12.41,15.16,0,110.1,13.38,12.12,196.1
"2010-12-09 00:52:00",406485,3.617,233.8,6.475,1.227,11.97,104.7087,11.33,12.18,14.77,0,110.1,13.38,12.12,195.8
"2010-12-09 00:52:30",406486,2.866,226,5.228,0.309,10.26,104.7093,11.33,12.18,14.63,0,110.1,13.41,12.12,188.0
"2010-12-09 00:53:00",406487,2.288,212.2,4.516,0.108,10.45,104.7081,11.33,12.16,14.64,0,110.1,13.42,12.12,174.2
"2010-12-09 00:53:30",406488,2.592,211.7,6.73,0.238,10.81,104.6974,11.3,12.16,14.62,0,110.1,13.42,12.09,173.7
"2010-12-09 00:54:00",406489,3.05,230.6,5.249,0.217,11.33,104.6875,11.27,12.16,14.66,0,110.1,13.42,12.06,192.6
"2010-12-09 00:54:30",406490,2.903,212.2,8.32,0.642,11.75,104.6929,11.29,12.16,14.55,0,110.1,13.42,12.08,174.2
"2010-12-09 00:55:00",406491,3.129,230.4,12.97,1.151,13.33,104.6949,11.29,12.22,14.68,0,110.1,13.39,12.08,192.4
"2010-12-09 00:55:30",406492,5.272,253.5,6.149,0.564,16.84,104.6929,11.29,12.48,15,0,110.1,13.39,12.08,215.5
"2010-12-09 00:56:00",406493,4.258,262.5,6.483,1.294,14.74,104.6929,11.29,12.31,14.92,0,110.1,13.39,12.08,224.5
"2010-12-09 00:56:30",406494,3.956,262.9,6.685,1.329,14.19,104.6959,11.29,12.35,14.93,0,110.1,13.39,12.09,224.9
"2010-12-09 00:57:00",406495,2.476,265.6,2.633,0.142,10.39,104.7009,11.31,12.16,14.95,0,110.1,13.42,12.10,227.6
"2010-12-09 00:57:30",406496,2.495,270.2,6.964,0.238,10.18,104.7094,11.33,12.17,15.02,0,110.1,13.42,12.12,232.2
"2010-12-09 00:58:00",406497,2.286,276,8.62,0.218,10.37,104.7125,11.34,12.17,15.02,0,110.1,13.42,12.13,238.0
"2010-12-09 00:58:30",406498,2.471,265.9,3.244,0.161,10.82,104.7143,11.34,12.18,14.99,0,110.1,13.43,12.13,227.9
"2010-12-09 00:59:00",406499,2.378,258.9,4.323,0.239,11.21,104.7146,11.34,12.2,14.87,0,110.1,13.43,12.13,220.9
"2010-12-09 00:59:30",406500,3.512,255.8,10.48,1.369,12.77,104.7194,11.35,12.22,14.67,0,110.1,13.39,12.15,217.8
"2010-12-09 01:00:00",406501,2.9,263.6,5.448,0.331,12.24,104.746,11.42,12.38,14.76,0,110.1,13.4,12.21,225.6
"2010-12-09 01:00:30",406502,5.129,270.7,7.488,0.986,15.75,104.7505,11.43,12.44,14.79,0,110.1,13.39,12.23,232.7
"2010-12-09 01:01:00",406503,3.845,280,18.44,1.63,14.43,104.7505,11.43,12.43,14.72,0,110.1,13.39,12.23,242.0
"2010-12-09 01:01:30",406504,2.941,266.3,6.371,1.259,13.35,104.7543,11.44,12.49,14.78,0,110.1,13.39,12.24,228.3
"2010-12-09 01:02:00",406505,2.645,262.6,5.566,1.065,11.31,104.7537,11.44,12.32,14.55,0,110.1,13.39,12.23,224.6
"2010-12-09 01:02:30",406506,2.117,245.3,7.765,0.149,10.11,104.7532,11.44,12.29,14.49,0,110.1,13.42,12.23,207.3
"2010-12-09 01:03:00",406507,2.347,255.6,6.86,0.281,10.45,104.7517,11.44,12.28,14.5,0,110.1,13.43,12.23,217.6
"2010-12-09 01:03:30",406508,2.556,261.6,8.55,0.238,10.85,104.7553,11.45,12.29,14.54,0,110.1,13.43,12.24,223.6
"2010-12-09 01:04:00",406509,2.761,256,5.531,0.334,11.13,104.7541,11.44,12.28,14.56,0,110.1,13.43,12.24,218.0
"2010-12-09 01:04:30",406510,2.719,253.1,8.3,0.798,12.31,104.747,11.42,12.41,14.72,0,110.1,13.4,12.22,215.1
"2010-12-09 01:05:00",406511,3.603,265.7,4.914,1.121,13.18,104.7239,11.37,12.26,14.67,0,110.1,13.4,12.16,227.7
"2010-12-09 01:05:30",406512,4.427,277.3,7.926,1.338,14.74,104.7234,11.36,12.52,15.01,0,110.1,13.39,12.16,239.3
"2010-12-09 01:06:00",406513,4.193,271.8,6.724,1.268,14.98,104.7401,11.41,12.5,14.96,0,110.1,13.39,12.20,233.8
"2010-12-09 01:06:30",406514,2.718,255.5,7.332,1.136,12.13,104.7553,11.45,12.33,14.72,0,110.1,13.39,12.24,217.5
"2010-12-09 01:07:00",406515,2.988,260.2,7.584,1.342,12.68,104.7514,11.44,12.33,14.79,0,110.1,13.39,12.23,222.2
"2010-12-09 01:07:30",406516,2.081,260.3,7.214,0.897,11.27,104.7396,11.41,12.41,14.91,0,110.1,13.38,12.20,222.3
"2010-12-09 01:08:00",406517,1.77,259.3,5.549,0.228,10.37,104.7305,11.38,12.25,14.76,0,110.1,13.42,12.17,221.3
"2010-12-09 01:08:30",406518,1.558,265.9,7.185,0.164,10.5,104.7226,11.36,12.24,14.77,0,110.1,13.42,12.15,227.9
"2010-12-09 01:09:00",406519,1.463,278.2,5.698,0.249,10.92,104.7229,11.36,12.23,14.74,0,110.1,13.42,12.16,240.2
"2010-12-09 01:09:30",406520,1.092,289.2,7.075,0.075,11.36,104.7278,11.38,12.25,14.74,0,110.1,13.42,12.17,251.2
"2010-12-09 01:10:00",406521,2.511,298.7,9.07,1.517,13.28,104.7397,11.41,12.42,14.82,0,110.1,13.39,12.20,260.7
"2010-12-09 01:10:30",406522,2.336,287.4,12.3,1.144,12.38,104.7592,11.46,12.32,14.66,0,110.1,13.39,12.25,249.4
"2010-12-09 01:11:00",406523,2.304,256.2,9.03,1.098,13.07,104.7635,11.47,12.4,14.76,0,110.1,13.4,12.26,218.2
"2010-12-09 01:11:30",406524,2.848,282.2,27.81,1.237,15.45,104.7574,11.45,12.47,14.91,0,110.1,13.4,12.24,244.2
"2010-12-09 01:12:00",406525,1.987,292.7,11.73,1.25,13.31,104.7644,11.47,12.36,14.6,0,110.1,13.4,12.26,254.7
"2010-12-09 01:12:30",406526,0.979,290.7,14.7,0.138,10.97,104.7805,11.51,12.29,14.43,0,110.1,13.43,12.30,252.7
"2010-12-09 01:13:00",406527,1.548,267.2,8.1,1.033,11.31,104.8013,11.56,12.32,14.47,0,110.1,13.39,12.36,229.2
"2010-12-09 01:13:30",406528,2.453,283.7,9.63,1.484,12.74,104.8016,11.56,12.46,14.6,0,110.1,13.4,12.36,245.7
"2010-12-09 01:14:00",406529,2.216,281.7,6.27,0.349,10.59,104.8027,11.57,12.34,14.49,0,110.1,13.43,12.36,243.7
"2010-12-09 01:14:30",406530,1.893,275.9,4.216,0.291,10.75,104.7888,11.53,12.33,14.53,0,110.1,13.43,12.32,237.9
"2010-12-09 01:15:00",406531,1.644,262.2,7.655,0.343,11.22,104.782,11.51,12.33,14.53,0,110.1,13.44,12.31,224.2
"2010-12-09 01:15:30",406532,1.591,259.8,3.436,0.152,11.8,104.7978,11.55,12.35,14.36,0,110.1,13.44,12.35,221.8
"2010-12-09 01:16:00",406533,2.384,263.4,10.86,1.308,14.05,104.8294,11.64,12.44,14.19,0,110.1,13.4,12.43,225.4
"2010-12-09 01:16:30",406534,2.179,262.3,7.477,1.294,14.38,104.8602,11.71,12.58,14.27,0,110.1,13.4,12.51,224.3
"2010-12-09 01:17:00",406535,1.219,270.6,7.736,0.067,12.06,104.8804,11.77,12.47,14.01,0,110.1,13.44,12.56,232.6
"2010-12-09 01:17:30",406536,2.78,281.2,8.4,1.368,14.76,104.9098,11.84,12.69,14.13,0,110.1,13.4,12.63,243.2
"2010-12-09 01:18:00",406537,2.966,286.6,5.433,1.276,14.88,104.9131,11.85,12.73,14.09,0,110.1,13.4,12.64,248.6
"2010-12-09 01:18:30",406538,1.288,277.1,5.304,0.06,11.69,104.9426,11.93,12.59,13.84,0,110.1,13.44,12.72,239.1
"2010-12-09 01:19:00",406539,1.121,286.1,2.773,0.06,11.06,104.9466,11.94,12.63,13.78,0,110.1,13.44,12.73,248.1
"2010-12-09 01:19:30",406540,1.188,284.8,7.553,0.114,11.08,104.9483,11.94,12.73,13.85,0,110.1,13.44,12.73,246.8
"2010-12-09 01:20:00",406541,2.278,288.4,7.858,1.364,13.32,104.9641,11.98,12.75,13.82,0,110.1,13.4,12.77,250.4
"2010-12-09 01:20:30",406542,1.276,278.5,2.574,0.094,11.46,104.9731,12,12.72,13.74,0,110.1,13.44,12.80,240.5
"2010-12-09 01:21:00",406543,1.507,286,4.498,0.05,11.33,104.9669,11.99,12.73,13.72,0,110.1,13.44,12.78,248.0
"2010-12-09 01:21:30",406544,1.428,295.6,1.759,0.046,11.52,104.9615,11.97,12.73,13.72,0,110.1,13.43,12.77,257.6
"2010-12-09 01:22:00",406545,2.186,300.3,6.568,1.186,12.98,104.9482,11.94,12.74,13.73,0,110.1,13.4,12.73,262.3
"2010-12-09 01:22:30",406546,2.913,279.1,6.088,1.58,14,104.946,11.93,12.91,14,0,110.1,13.39,12.73,241.1
"2010-12-09 01:23:00",406547,1.773,273.8,9.15,0.233,11.79,104.9466,11.94,12.74,14.02,0,110.1,13.4,12.73,235.8
"2010-12-09 01:23:30",406548,3.484,284.2,8.78,1.264,13.37,104.9294,11.89,12.74,14.02,0,110.1,13.39,12.69,246.2
"2010-12-09 01:24:00",406549,2.851,287.6,20.88,1.193,15.4,104.9161,11.86,13,14.23,0,110.1,13.39,12.65,249.6
"2010-12-09 01:24:30",406550,1.159,271.5,9.93,1.274,12.91,104.9127,11.85,12.76,13.93,0,110.1,13.39,12.64,233.5
"2010-12-09 01:25:00",406551,0.287,304.3,14.85,0.124,10.93,104.9133,11.85,12.72,13.82,0,110.1,13.42,12.64,266.3
"2010-12-09 01:25:30",406552,0.153,353.5,15.84,0.133,10.51,104.9121,11.85,12.69,13.86,0,110.1,13.42,12.64,315.5
"2010-12-09 01:26:00",406553,0.315,12.78,17.94,0.22,10.64,104.8952,11.8,12.68,13.94,0,110.1,13.43,12.60,334.8
"2010-12-09 01:26:30",406554,1.459,44.51,11.63,1.302,12.93,104.8776,11.76,12.8,14.1,0,110.1,13.4,12.55,6.5
"2010-12-09 01:27:00",406555,0.169,32.65,11.51,0.132,11.09,104.8791,11.76,12.61,14,0,110.1,13.44,12.56,354.6
"2010-12-09 01:27:30",406556,0.831,35.13,4.68,0.175,10.93,104.8791,11.76,12.61,13.94,0,110.1,13.44,12.56,357.1
"2010-12-09 01:28:00",406557,1.036,30.7,4.273,0.09,11.15,104.8794,11.76,12.61,13.88,0,110.1,13.44,12.56,352.7
"2010-12-09 01:28:30",406558,1.202,33.48,3.142,0.289,11.55,104.8794,11.76,12.61,13.93,0,110.1,13.44,12.56,355.5
"2010-12-09 01:29:00",406559,1.911,34.37,5.952,1.056,12.47,104.8797,11.76,12.62,13.95,0,110.1,13.4,12.56,356.4
"2010-12-09 01:29:30",406560,2.508,39.71,6.951,1.348,14.08,104.8791,11.76,12.71,14,0,110.1,13.4,12.56,1.7
"2010-12-09 01:30:00",406561,1.217,45.48,7.912,0.155,11.87,104.8797,11.76,12.59,13.95,0,110.1,13.44,12.56,7.5
"2010-12-09 01:30:30",406562,1.578,32.34,17.05,0.967,12.57,104.8794,11.76,12.59,14.07,0,110.1,13.4,12.56,354.3
"2010-12-09 01:31:00",406563,0.99,17.37,32.91,0.99,12.58,104.8791,11.76,12.72,14.23,0,110.1,13.4,12.56,339.4
"2010-12-09 01:31:30",406564,2.203,332.5,12.64,1.223,15.1,104.8794,11.76,12.74,14.23,0,110.1,13.4,12.56,294.5
"2010-12-09 01:32:00",406565,0.816,339.7,13.52,0.917,11.87,104.8825,11.77,12.64,14.15,0,110.1,13.4,12.56,301.7
"2010-12-09 01:32:30",406566,0.529,329.2,13.61,0.097,11.08,104.9068,11.83,12.63,14.11,0,110.1,13.44,12.63,291.2
"2010-12-09 01:33:00",406567,0.97,318.1,5.624,0.299,11.18,104.9136,11.85,12.72,14.14,0,110.1,13.44,12.64,280.1
"2010-12-09 01:33:30",406568,1.997,328.3,20.94,1.411,12.67,104.9181,11.86,12.7,14.08,0,110.1,13.4,12.66,290.3
"2010-12-09 01:34:00",406569,1.119,230.6,10.67,0.954,12.16,104.9387,11.92,12.78,14.09,0,110.1,13.4,12.71,192.6
"2010-12-09 01:34:30",406570,1.106,242.2,6.786,0.25,11.22,104.9463,11.94,12.67,13.95,0,110.1,13.44,12.73,204.2
"2010-12-09 01:35:00",406571,0.898,241.8,15.13,0.088,11.35,104.9475,11.94,12.71,13.99,0,110.1,13.44,12.73,203.8
"2010-12-09 01:35:30",406572,0.851,261,15.81,0.128,11.73,104.9475,11.94,12.72,14.02,0,110.1,13.44,12.73,223.0
"2010-12-09 01:36:00",406573,0.73,294.4,7.435,0.111,11.87,104.9475,11.94,12.83,14.13,0,110.1,13.44,12.73,256.4
"2010-12-09 01:36:30",406574,1.849,299.3,21.93,1.373,14.14,104.9475,11.94,12.79,14.07,0,110.1,13.41,12.73,261.3
"2010-12-09 01:37:00",406575,1.091,251.2,17.37,0.192,12.11,104.9475,11.94,12.83,14.11,0,110.1,13.44,12.73,213.2
"2010-12-09 01:37:30",406576,1.674,282.4,5.892,0.744,12.75,104.9475,11.94,12.86,14.13,0,110.1,13.41,12.73,244.4
"2010-12-09 01:38:00",406577,1.995,271.3,9.29,1.419,13,104.9475,11.94,12.81,14.1,0,110.1,13.4,12.73,233.3
"2010-12-09 01:38:30",406578,1.774,305.7,24.1,1.264,14.04,104.9475,11.94,12.91,14.21,0,110.1,13.4,12.73,267.7
"2010-12-09 01:39:00",406579,0.862,338.5,11.14,0.325,11.24,104.9469,11.94,12.78,14.07,0,110.1,13.43,12.73,300.5
"2010-12-09 01:39:30",406580,1.554,322.6,3.326,0.125,10.91,104.9452,11.93,12.73,13.98,0,110.1,13.43,12.73,284.6
"2010-12-09 01:40:00",406581,2.423,326.4,6.625,1.249,12.93,104.9331,11.9,12.82,14.08,0,110.1,13.4,12.69,288.4
"2010-12-09 01:40:30",406582,1.674,320.9,6.153,1.108,12.68,104.9198,11.87,12.86,14.14,0,110.1,13.4,12.66,282.9
"2010-12-09 01:41:00",406583,0.84,323.5,4.96,0.116,11.26,104.9142,11.85,12.71,14.01,0,110.1,13.43,12.65,285.5
"2010-12-09 01:41:30",406584,0.958,318.3,6.837,0.11,11.29,104.9139,11.85,12.71,14,0,110.1,13.43,12.65,280.3
"2010-12-09 01:42:00",406585,1.217,294.9,7.463,0.408,11.56,104.9142,11.85,12.72,14,0,110.1,13.44,12.65,256.9
"2010-12-09 01:42:30",406586,2.264,297.9,6.527,1.366,13.45,104.9136,11.85,12.75,14.03,0,110.1,13.4,12.64,259.9
"2010-12-09 01:43:00",406587,2.325,314.7,7.793,1.389,14.19,104.9136,11.85,12.87,14.17,0,110.1,13.4,12.64,276.7
"2010-12-09 01:43:30",406588,1.961,306.8,8.14,1.192,12.8,104.9136,11.85,12.71,14.01,0,110.1,13.4,12.64,268.8
"2010-12-09 01:44:00",406589,1.503,297.9,8.45,1.055,12.99,104.9136,11.85,12.84,14.17,0,110.1,13.4,12.64,259.9
"2010-12-09 01:44:30",406590,1.919,306.7,10.04,1.033,12.55,104.9136,11.85,12.73,14.05,0,110.1,13.4,12.64,268.7
"2010-12-09 01:45:00",406591,2.219,306.2,10.63,1.498,13.73,104.9136,11.85,12.8,14.11,0,110.1,13.4,12.64,268.2
"2010-12-09 01:45:30",406592,1.028,303.3,9.94,0.833,12.16,104.9136,11.85,12.86,14.2,0,110.1,13.4,12.64,265.3
"2010-12-09 01:46:00",406593,0.307,316.7,69.1,0.303,10.89,104.9136,11.85,12.71,14.02,0,110.1,13.44,12.64,278.7
"2010-12-09 01:46:30",406594,0.367,270.3,39.55,0.314,11.01,104.9136,11.85,12.7,14.05,0,110.1,13.41,12.64,232.3
"2010-12-09 01:47:00",406595,1.438,282.1,13.26,1.379,13.18,104.9136,11.85,12.84,14.19,0,110.1,13.4,12.64,244.1
"2010-12-09 01:47:30",406596,0.827,258.2,11.19,0.286,11.12,104.9136,11.85,12.69,14.05,0,110.1,13.41,12.64,220.2